Chelan, Washington, United States (98816)
Lat: 47.84N, Lon: 120.02W
Wx Zone: WAZ041
Local Info
Past Weather Observations for Today

NOTE: This archive is for the closest National Weather Service station to Chelan. Information may differ from the station used for current weather conditions.

Click here for Long-term Archive

Time Weather Temperature Dewpoint Humidity Pressure Winds Precip Visibility
21:55
Clear
81°F / 27°C 52°F / 11°C 37% 29.92 in
(1013 mb)
NNW 11.5 mph
(NNW 19 kph)
- 10SM
20:55
Clear
82°F / 28°C 48°F / 9°C 30% 29.92 in
(1013 mb)
NNW 11.5 mph
(NNW 19 kph)
- 10SM
19:55
Clear
84°F / 29°C 50°F / 10°C 31% 29.92 in
(1013 mb)
NNW 11.5 mph
(NNW 19 kph)
- 10SM
18:55
Clear
86°F / 30°C 50°F / 10°C 29% 29.92 in
(1013 mb)
NNW 12.7 mph
(NNW 20 kph)
- 10SM
17:55
Clear
Hazy
90°F / 32°C 50°F / 10°C 26% 29.92 in
(1013 mb)
NNW 12.7 mph
(NNW 20 kph)
- 6SM
17:15
Clear
93°F / 34°C 46°F / 8°C 20% 29.89 in
(1012 mb)
NW 13.8 mph
(NW 22 kph)
- 10SM
16:55
Clear
97°F / 36°C 45°F / 7°C 17% 29.92 in
(1013 mb)
NW 13.8 mph
(NW 22 kph)
- 10SM
15:55
Clear
93°F / 34°C 45°F / 7°C 19% 29.92 in
(1013 mb)
SE 6.9 mph
(SE 11 kph)
0.00 in
(0.00 mm)
10SM
14:55
Partly Cloudy
Light Rain
93°F / 34°C 48°F / 9°C 21% 29.92 in
(1013 mb)
E 9.2 mph
(E 15 kph)
0.00 in
(0.00 mm)
10SM
13:55
Clear
93°F / 34°C 45°F / 7°C 19% 29.95 in
(1014 mb)
SE 9.2 mph
(SE 15 kph)
- 10SM
12:55
Clear
97°F / 36°C 46°F / 8°C 18% 29.95 in
(1014 mb)
E 6.9 mph
(E 11 kph)
- 10SM
11:55
Clear
93°F / 34°C 41°F / 5°C 16% 29.95 in
(1014 mb)
S 4.6 mph
(S 7 kph)
- 10SM
10:55
Clear
90°F / 32°C 45°F / 7°C 21% 29.98 in
(1015 mb)
SSW 10.4 mph
(SSW 17 kph)
- 10SM
09:55
Clear
84°F / 29°C 46°F / 8°C 27% 29.98 in
(1015 mb)
W 9.2 mph
(W 15 kph)
- 7SM
08:55
Clear
81°F / 27°C 48°F / 9°C 32% 30.01 in
(1016 mb)
W 9.2 mph
(W 15 kph)
- 7SM
07:55
Clear
77°F / 25°C 50°F / 10°C 39% 30.01 in
(1016 mb)
SSW 10.4 mph
(SSW 17 kph)
- 10SM
06:55
Clear
73°F / 23°C 50°F / 10°C 44% 30.01 in
(1016 mb)
W 6.9 mph
(W 11 kph)
- 10SM
05:55
Clear
73°F / 23°C 50°F / 10°C 44% 30.01 in
(1016 mb)
W 6.9 mph
(W 11 kph)
- 10SM
04:55
Clear
73°F / 23°C 52°F / 11°C 47% 29.98 in
(1015 mb)
Calm - 10SM
03:55
Clear
77°F / 25°C 50°F / 10°C 39% 29.98 in
(1015 mb)
WNW 8.1 mph
(WNW 13 kph)
- 10SM
02:55
Clear
75°F / 24°C 54°F / 12°C 47% 29.98 in
(1015 mb)
NW 5.8 mph
(NW 9 kph)
- 10SM
01:55
Clear
81°F / 27°C 52°F / 11°C 37% 29.98 in
(1015 mb)
NW 10.4 mph
(NW 17 kph)
- 10SM
00:55
Clear
82°F / 28°C 54°F / 12°C 37% 29.95 in
(1014 mb)
NNW 11.5 mph
(NNW 19 kph)
- 10SM
Time Weather Temperature Dewpoint Humidity Pressure Winds Precip Visibility


Weather for websites

WeatherForYou.com, LLC is not responsible for any damages or problems caused by this service. Current weather conditions are obtained from the closest station including government and personal stations which may have varying degrees of accuracy. Weather forecasts are derived from the NOAA NDFD. Like all things, this site belongs to Jesus Christ... He just trusts me to maintain it. If you have any questions or comments email webmaster@weatherforyou.com

Copyright © 2014, WeatherForYou.com LLC. All rights reserved.